Regional Weather Roundup
Issued by NWS

Home | Current Version | Previous Version | Graphics & Text | Print | Product List | Glossary On
Versions: 1 2 3 4 5 6 7 8 9 10 11 12 13 14 15 16 17 18 19 20 21 22 23 24 25 26 27 28 29 30 31 32 33 34 35 36 37 38 39 40 41 42 43 44 45 46 47 48 49 50
000
ASUS45 KABQ 261210
RWRNM
NEW MEXICO REGIONAL WEATHER ROUNDUP
NATIONAL WEATHER SERVICE ALBUQUERQUE NM
600 AM MDT FRI AUG 26 2016

NOTE: "FAIR" MEANS FEW OR NO CLOUDS BELOW 12,000 FEET AGL WITH NO
       SIGNIFICANT WEATHER OR OBSTRUCTIONS TO VISION.

      THIS PRODUCT IS RELEASED AS TWO VERSIONS.  ONE VERSION NEAR
      THE TOP OF THE HOUR CONTAINING PRELIMINARY DATA FROM ALBUQUERQUE
      AND OTHER STATIONS.  A FINAL VERSION WITH ADDITIONAL DATA IS
      ISSUED ABOUT 10 MINUTES AFTER THE HOUR.

NMZ501-503-504-510>518-261300-
NORTHWEST PLATEAU/NORTHCENTRAL MOUNTAINS

CITY           SKY/WX    TMP DP  RH WIND       PRES   REMARKS
FARMINGTON     MOCLDY    57  50  77 W5        30.21R
6HR MIN TEMP:  57; 6HR MAX TEMP:  59; 6HR PCP: TRACE;

LOS ALAMOS     CLOUDY    54  48  80 W5        30.31S
SANTA FE       CLOUDY    54  53  97 W5        30.26F
6HR MIN TEMP:  54; 6HR MAX TEMP:  65; 6HR PCP:  0.13;

TAOS           CLOUDY    48  43  81 CALM      30.31S
ANGEL FIRE     FAIR      45  44  95 SE5       30.37F

$$
NMZ402-403-502-505>509-261300-
WESTCENTRAL MOUNTAINS/SOUTHWEST MOUNTAINS

CITY           SKY/WX    TMP DP  RH WIND       PRES   REMARKS
GALLUP         FAIR      51  48  89 CALM      30.27R
6HR MIN TEMP:  50; 6HR MAX TEMP:  56;

GRANTS         MOCLDY    52  50  93 CALM      30.29S
SILVER CITY    FAIR      55  52  90 N6        30.18R

$$
NMZ407-409-411-412-261300-
SOUTHERN DESERTS

CITY           SKY/WX    TMP DP  RH WIND       PRES   REMARKS
DEMING         FAIR      60  54  80 NE6       30.12S
6HR MIN TEMP:  60; 6HR MAX TEMP:  73;

LAS CRUCES     FAIR      64  55  73 SE7       30.15R
ALAMOGORDO     CLOUDY    64  50  59 N5        30.14R
T OR C         FAIR      63  54  72 NE5       30.15R
6HR MIN TEMP:  63; 6HR MAX TEMP:  73;


$$
NMZ519>523-261300-
CENTRAL VALLEYS/CENTRAL HIGHLANDS

CITY           SKY/WX    TMP DP  RH WIND       PRES   REMARKS
ALBUQUERQUE    FAIR      61  55  81 NW9       30.21R
6HR MIN TEMP:  61; 6HR MAX TEMP:  72;

DOUBLE EAGLE   MOCLDY    57  52  82 NW8       30.25R
MORIARTY ARPT  CLOUDY    55  51  86 CALM      30.28S
6HR MIN TEMP:  53; 6HR MAX TEMP:  59;

CLINES CORNERS NOT AVBL
BELEN          FAIR      58  48  69 NW8       30.21R
6HR MIN TEMP:  58; 6HR MAX TEMP:  69;

SOCORRO        FAIR      65  46  48 NW8       30.17S
6HR MIN TEMP:  65; 6HR MAX TEMP:  72;


$$
NMZ524>526-539-540-261300-
SOUTHCENTRAL MOUNTAINS

CITY           SKY/WX    TMP DP  RH WIND       PRES   REMARKS
RUIDOSO          N/A     54  48  82 S3        30.30S

$$
NMZ527>531-261300-
NORTHEAST HIGHLANDS/NORTHEAST PLAINS

CITY           SKY/WX    TMP DP  RH WIND       PRES   REMARKS
LAS VEGAS      CLOUDY    50  49  96 N3        30.32R
6HR MIN TEMP:  49; 6HR MAX TEMP:  56; 6HR PCP:  0.20;

RATON          CLOUDY    54  51  90 S5        30.28S
6HR MIN TEMP:  53; 6HR MAX TEMP:  59; 6HR PCP:  0.39;

CLAYTON        CLOUDY    59  55  87 W7        30.19R
6HR MIN TEMP:  56; 6HR MAX TEMP:  61; 6HR PCP:  0.14;


$$
NMZ532>537-261300-
EASTCENTRAL PLAINS

CITY           SKY/WX    TMP DP  RH WIND       PRES   REMARKS
TUCUMCARI      LGT RAIN  62  59  90 CALM      30.19R
6HR MIN TEMP:  61; 6HR MAX TEMP:  65; 6HR PCP:  0.04;

CANNON AFB     MOCLDY    60  60 100 NE6       30.19R
6HR MIN TEMP:  60; 6HR MAX TEMP:  65; 6HR PCP: TRACE;

CLOVIS AIRPORT FAIR      61  55  82 N3        30.18S

$$
NMZ028-029-538-261300-
SOUTHEAST PLAINS

CITY           SKY/WX    TMP DP  RH WIND       PRES   REMARKS
ROSWELL        FAIR      60  57  89 SW6       30.15R
6HR MIN TEMP:  60; 6HR MAX TEMP:  66;

ARTESIA        FAIR      61  61 100 W6        30.14F
CARLSBAD       FAIR      61  61 100 CALM      30.12R
6HR MIN TEMP:  61; 6HR MAX TEMP:  66;

HOBBS          CLEAR     63  63 100 NE5       30.16F


$$



USA.gov is the U.S. government's official web portal to all federal, state and local government web resources and services.